Location: Catstown
(52.4386°N, 7.2633°W)
Time: 13:24:30
(UTC+00:00)

Cosmos 1805 - Pass Details

Date: 18 September 2020
Orbit: 524 x 531 km, 82.5° (Epoch: 22 October)

Event Time Altitude Azimuth Distance (km) Brightness Sun altitude
Exits shadow 20:35:19 46° 109° (ESE) 729 3.4 -18.2°
Maximum altitude 20:35:37 47° 95° (E) 718 3.5 -18.3°
Drops below altitude 10° 20:39:24 10° 21° (NNE) 1,795 6.0 -18.8°
Sets 20:41:36 0° 16° (NNE) 2,691 7.0 -19.1°
